Location: Lane
(33.5226°N, 79.8788°W)
Time: 12:14:47
(UTC+00:00)

Tiros 1 despin weight - Pass Details

Date: 11 October 2022
Orbit: 590 x 637 km, 48.2° (Epoch: 25 November)

Event Time Altitude Azimuth Distance (km) Brightness Sun altitude
Rises 18:38:27 0° 267° (W) 2,813 ? 43.7°
Reaches altitude 10° 18:41:06 10° 282° (WNW) 1,918 ? 43.4°
Maximum altitude 18:44:38 23° 336° (NNW) 1,269 ? 43.0°
Drops below altitude 10° 18:48:13 10° 30° (NNE) 1,939 ? 42.6°
Sets 18:50:55 0° 45° (NE) 2,853 ? 42.3°
